Regional Weather Roundup
Issued by NWS

Home | Current Version | Previous Version | Text Only | Print | Product List | Glossary Off
Versions: 1 2 3 4 5 6 7 8 9 10 11 12 13 14 15 16 17 18 19 20 21 22 23 24 25 26 27 28 29 30 31 32 33 34 35 36 37 38 39 40 41 42 43 44 45 46 47 48 49 50

000
ASUS43 KMKX 030700
RWRWI

WISCONSIN REGIONAL WEATHER ROUNDUP
NATIONAL WEATHER SERVICE MILWAUKEE/SULLIVAN WI
100 AM CST SAT DEC 03 2016

NOTE: "FAIR" INDICATES FEW OR NO CLOUDS BELOW 12,000 FEET WITH NO
SIGNIFICANT WEATHER AND/OR OBSTRUCTIONS TO VISIBILITY.

WIZ001-002-006>008-014>016-023>028-030800-
NORTHWEST WISCONSIN

CITY           SKY/WX    TMP DP  RH WIND       PRES   REMARKS
SUPERIOR ARPT  CLOUDY    30  25  82 NW8       30.29S WCI  22
ASHLAND        NOT AVBL
HAYWARD        NOT AVBL
SIREN          CLOUDY    29  24  81 W3        30.28S
CUMBERLAND     CLOUDY    28  23  80 W5        30.27S WCI  23
RICE LAKE      CLOUDY    30  24  79 CALM      30.29S
CHETEK         CLOUDY    29  23  76 CALM      30.28S
LADYSMITH      CLOUDY    28  26  89 CALM      30.29S
EAU CLAIRE     CLOUDY    31  25  78 W8        30.29S WCI  23
MENOMONIE      CLOUDY    31  27  83 SW5       30.29F WCI  26
NEW RICHMOND   CLOUDY    29  25  82 W3        30.29S
OSCEOLA        CLOUDY    30  25  82 W3        30.32F
$$

WIZ003>005-009-010-017-018-030800-
NORTH CENTRAL WISCONSIN

CITY           SKY/WX    TMP DP  RH WIND       PRES   REMARKS
MANITOWISH WTR CLOUDY    26  26 100 W5        30.23S WCI  21
ARBOR VITAE    NOT AVBL
WOODRUFF       NOT AVBL
RHINELANDER    CLOUDY    29  26  89 W3        30.23S
EAGLE RIVER    MIX PCPN  29  28  98 CALM      30.22R
LAND O LAKES   CLOUDY    29  28  95 W3        30.23R
PHILLIPS       CLOUDY    25  23  90 CALM      30.25S
TOMAHAWK       NOT AVBL
MEDFORD        CLOUDY    27  22  80 SW7       30.25S WCI  20
MERRILL        CLOUDY    29  24  79 W7        30.27R WCI  22
$$

WIZ029-030-035-036-043>047-030800-
CENTRAL WISCONSIN

CITY           SKY/WX    TMP DP  RH WIND       PRES   REMARKS
WAUSAU         CLOUDY    29  22  75 W6        30.25F WCI  23
MOSINEE        CLOUDY    30  25  80 W8        30.28S WCI  23
MARSHFIELD     CLOUDY    29  22  75 NW7       30.26S WCI  22
STEVENS POINT  CLOUDY    28  22  77 W5        30.28S WCI  23
WAUPACA        CLOUDY    33  24  69 W7        30.29S WCI  27
WAUTOMA        CLOUDY    31  24  75 W6        30.30S WCI  25
WISC RAPIDS    CLOUDY    30  24  78 NW7       30.29F WCI  23
CAMP DOUGLAS   NOT AVBL
$$

WIZ011>013-019>022-031-037>040-048>050-030800-
NORTHEAST WISCONSIN

CITY           SKY/WX    TMP DP  RH WIND       PRES   REMARKS
ANTIGO         CLOUDY    28  25  86 W6        30.24S WCI  22
SHAWANO        CLOUDY    34  27  74 W3        30.27S
OCONTO         CLOUDY    33  28  80 W6        30.27R WCI  28
STURGEON BAY   CLOUDY    36  28  73 NW7       30.26R WCI  30
GREEN BAY      NOT AVBL
MANITOWOC      NOT AVBL
APPLETON       NOT AVBL
CLINTONVILLE   CLOUDY    32  25  74 W7        30.27S WCI  26
OSHKOSH        CLOUDY    31  23  72 W7        30.28F WCI  24
$$

WIZ032>034-041-042-053>061-030800-
SOUTHWEST WISCONSIN

CITY           SKY/WX    TMP DP  RH WIND       PRES   REMARKS
LA CROSSE      NOT AVBL
SPARTA         CLOUDY    31  23  72 CALM      30.31S
VIROQUA        CLOUDY    29  22  74 W3        30.28S
BOSCOBEL       CLOUDY    32  21  64 W8        30.33S WCI  25
PRAIRIE DU CHI NOT AVBL
PLATTEVILLE    NOT AVBL
$$

WIZ056-057-062-063-064-067-068-030800-
SOUTH CENTRAL WISCONSIN

CITY           SKY/WX    TMP DP  RH WIND       PRES   REMARKS
REEDSBURG      CLOUDY    30  23  74 W6        30.29F WCI  24
BARABOO/DELLS  CLOUDY    31  23  73 W6        30.29S WCI  25
LONE ROCK      NOT AVBL
MINERAL POINT  CLOUDY    32  27  80 NW5       30.29S WCI  27
MADISON        CLOUDY    30  22  72 MISG      30.30F
MIDDLETON      CLOUDY    32  24  74 NW6       30.30S WCI  26
WATERTOWN      CLOUDY    31  24  75 W8        30.29F WCI  23
MONROE         CLOUDY    32  25  74 NW8       30.29S WCI  25
JANESVILLE     CLOUDY    32  25  74 NW5       30.30S WCI  27
$$

WIZ051-052-058>065-066-070>072-030800-
SOUTHEAST WISCONSIN

CITY           SKY/WX    TMP DP  RH WIND       PRES   REMARKS
MILWAUKEE      CLOUDY    33  22  63 NW7       30.30F WCI  27
WAUKESHA       CLOUDY    30  23  74 W6        30.30F WCI  24
MILWAUKEE/TIMM NOT AVBL
RACINE         CLOUDY    32  22  66 NW3       30.32F
BURLINGTON     CLOUDY    32  23  71 CALM      30.30S
KENOSHA        CLOUDY    32  23  69 NW5       30.30F WCI  27
FOND DU LAC    CLOUDY    31  21  66 NW8       30.29F WCI  23
SHEBOYGAN      CLOUDY    32  25  75 W12       30.28S WCI  23
WEST BEND      CLOUDY    32  25  74 W7        30.28F WCI  26
JUNEAU         CLOUDY    30  23  75 W3        30.30S
$$

LSZ147-162-030800-
LAKE SUPERIOR

STATION/POSITION TIME  TEMP    WIND        PRES    WAVE
                       AIR SEA DIR/SP/G            HT/PER
                 (UTC) (F)     (DEG/KT/KT) (MB)    (FT/S)
DEVILS ISLAND    0600   33     300/  9/ 10 1025.4S
PORT WING        0630   31     210/  5/  6 1025.1S
SAXON HARBOR     0640   30     200/  6/ 10 1024.7S
$$

LMZ867-665-643>646-030800-
LAKE MICHIGAN

STATION/POSITION TIME  TEMP    WIND        PRES    WAVE
                       AIR SEA DIR/SP/G            HT/PER
                 (UTC) (F)     (DEG/KT/KT) (MB)    (FT/S)
CHAMBERS ISLAND  0640   36     290/  5/ 10 1023.7S
NORTHPORT PIER   0640   37     300/  8/ 12 1023.7S
SISTER BAY       0608   37     330/ 14/ 15   N/A
ALGOMA LAKESHORE 0621          270/  7/  9   N/A
KEWAUNEE LAKESHO 0630   34     270/  7/  9 1024.3R
SHEBOYGAN LAKESH 0600   33     260/ 11/ 13 1025.9S
PORT WASHINGTON  0640   33     290/  5/  8 1026.8S
MILWAUKEE LAKESH 0630   33     290/  8/  9   N/A
S MID LAKE BUOY  0550   36 49  250/  8/ 12 1026.2R   2/ 5
KENOSHA   LAKESH 0600   33     320/  8/ 10 1026.4
$$

TC  - TEMPERATURE IN CELSIUS
VSB - VISIBILITY IN STATUTE MILES
WCI - WIND CHILL INDEX
HX  - HEAT INDEX





USA.gov is the U.S. government's official web portal to all federal, state and local government web resources and services.